Regional Weather Roundup
Issued by NWS Midland/Odessa, TX

Skip options and go directly to product.
Home | Oldest Version | Next Version | Current Version | All | Text Only | Save Text | Print | Product List | Glossary On

Skip product version selection by date and time.   
871
ASUS44 KMAF 221210
RWRMAF
MIDLAND AREA WEATHER ROUNDUP
NATIONAL WEATHER SERVICE MIDLAND TX
600 AM CST SAT NOV 22 2014

...IN SOUTHWEST TEXAS AND SOUTHEAST NEW MEXICO...

CITY           SKY/WX    TMP DP  RH WIND       PRES   REMARKS
ALPINE         CLOUDY    45  41  87 W6        30.02S
ANDREWS        CLOUDY    55  54  94 E3        29.97S
ARTESIA        NOT AVBL
BIG SPRING     CLOUDY    59  55  89 NE5       29.98S
CARLSBAD       CLOUDY    50  39  66 W8        29.99R
DRYDEN           N/A     61  60  97 CALM      29.90S
FORT STOCKTON  CLOUDY    52  49  89 SW9       29.95R
GUAD PASS      CLOUDY    51  31  46 NE13      30.03F
HOBBS          CLOUDY    54  54 100 CALM      29.98F
MARFA          CLOUDY    43  36  75 NW7       29.99S WCI  39
MIDLAND AIRPK  CLOUDY    58  55  91 CALM      29.96S
MIDLAND INTL   CLOUDY    57  55  93 NE3       29.95S
ODESSA         CLOUDY    56  53  90 E8        29.95F
PECOS          CLOUDY    48  47  94 NW8       29.95R FOG
PRESIDIO       FAIR      53  46  77 NW7       29.93R
SEMINOLE       CLOUDY    54  52  90 CALM      29.99S
SNYDER         MOCLDY    57  56  97 SE5       29.97F
WINK           MOCLDY    51  47  86 E5        29.92S
$$
...OTHER STATIONS IN TEXAS...

CITY           SKY/WX    TMP DP  RH WIND       PRES   REMARKS
ABILENE        CLOUDY    63  60  90 SE9       29.98R
AMARILLO       PTCLDY    40  35  83 SW10      29.97F WCI  33
AUSTIN         CLOUDY    66  63  90 SE7       30.01S
BROWNSVILLE    CLOUDY    73  70  90 SE13      29.96R
CORPUS CHRISTI LGT RAIN  72  68  87 SE17G33   29.89F
DALLAS FTW     LGT RAIN  57  57 100 SE13      30.03S VSB 1
DEL RIO        CLOUDY    67  65  93 E16G23    29.88S
EL PASO        CLOUDY    55  34  45 S5        30.02R
HOUSTON INT    PTCLDY    61  59  93 E8        30.08S
LUBBOCK        CLOUDY    44  41  89 W5        29.98F
SAN ANGELO     CLOUDY    62  59  90 SE6       29.94S
SAN ANTONIO    LGT RAIN  68  65  90 SE14      30.00S FOG
WACO           CLOUDY    63  61  93 SE16      30.03F
WICHITA FALLS  NOT AVBL
$$
...OTHER LOCATIONS IN NEW MEXICO...

CITY           SKY/WX    TMP DP  RH WIND       PRES   REMARKS
ALAMAGORDO     CLOUDY    41  27  56 MISG      30.02S
ALBUQUERQUE    PTCLDY    34  18  52 N9        30.07S WCI  27
CANNON AFB     CLOUDY    48  43  81 SW10      30.00F
CLOVIS         CLOUDY    48  43  81 SW8       30.00F
HOLLOMAN AFB   CLOUDY    41  28  58 SE6       30.01S WCI  37
ROSWELL        CLOUDY    46  31  55 N7        30.00S
RUIDOSO        MOCLDY    41  19  42 NW3       30.09S
SANTA FE       CLEAR     28  21  75 N13       30.06F WCI  17
TRUTH OR CONSE PTCLDY    39  22  50 W9        30.05S WCI  33
TUCUMCARI      CLEAR     34  23  64 VRB3      29.97F
$$

USA.gov is the U.S. government's official web portal to all federal, state and local government web resources and services.